カタログに戻る

AMC-18

運用中通信GEO
NORAD 29644·PAYLOAD·🇱🇺 Luxembourg

打ち上げ Dec 8, 2006 から Guiana Space Centre

Loading…

TLE

最新Source: Space-Track

元期: Sep 14, 2026, 13:49 UTC

1 29644U 06054B   26257.57605435 -.00000162  00000-0  00000-0 0  9997
2 29644   2.8416  82.6512 0009171 125.5056 357.6174  0.98861145 72277

AllMySatでAMC-18をリアルタイム追跡

Download on the App Store